Location: Asheville, NC
(35.6000°N, 82.5500°W)
Time: 15:59:48
(UTC-04:00)

XW-2F - Pass Details

Date: 08 January 2018
Orbit: 506 x 527 km, 97.5° (Epoch: 23 June)

Event Time Altitude Azimuth Distance (km) Brightness Sun altitude
Rises 06:34:35 0° 12° (NNE) 2,647 ? -13.2°
Reaches altitude 10° 06:36:42 10° 13° (NNE) 1,751 ? -12.8°
Maximum altitude 06:40:29 84° 100° (E) 521 ? -12.0°
Drops below altitude 10° 06:44:12 10° 191° (S) 1,724 ? -11.3°
Sets 06:46:16 0° 192° (SSW) 2,602 ? -10.9°
